This is the latest recevied weather packets stored in our database for station/object DK4SDR-10. If no packets are shown the sender has not sent any weather packets the latest 10 day(s).
| Time | Temp. | Humidity | Pressure | Rain* | Wind** | Luminosity | Snow |
|---|---|---|---|---|---|---|---|
| 1777928610 | 21.11° C | 43% | 1013 hPa | - | - | - | - |
| 1777927710 | 21.11° C | 42% | 1012.9 hPa | - | - | - | - |
| 1777926810 | 21.67° C | 42% | 1012.8 hPa | - | - | - | - |
| 1777925910 | 21.67° C | 42% | 1012.8 hPa | - | - | - | - |
| 1777925010 | 22.22° C | 41% | 1012.9 hPa | - | - | - | - |
| 1777924110 | 22.22° C | 40% | 1013 hPa | - | - | - | - |
| 1777923210 | 22.78° C | 40% | 1013 hPa | - | - | - | - |
| 1777922310 | 22.78° C | 39% | 1012.9 hPa | - | - | - | - |
| 1777920510 | 23.33° C | 38% | 1012.6 hPa | - | - | - | - |
| 1777919610 | 23.89° C | 36% | 1012.4 hPa | - | - | - | - |
| 1777918710 | 24.44° C | 36% | 1012.3 hPa | - | - | - | - |
| 1777917810 | 25° C | 35% | 1012.1 hPa | - | - | - | - |
| 1777916910 | 25.56° C | 33% | 1012.1 hPa | - | - | - | - |
| 1777916010 | 26.11° C | 33% | 1012.2 hPa | - | - | - | - |
| 1777915110 | 26.11° C | 32% | 1012.2 hPa | - | - | - | - |
| 1777914210 | 26.67° C | 32% | 1012.1 hPa | - | - | - | - |
| 1777913310 | 27.22° C | 32% | 1012.3 hPa | - | - | - | - |
| 1777912410 | 27.22° C | 30% | 1012.3 hPa | - | - | - | - |
| 1777911510 | 27.22° C | 30% | 1012.5 hPa | - | - | - | - |
| 1777910610 | 27.22° C | 31% | 1012.4 hPa | - | - | - | - |
| 1777909710 | 27.22° C | 30% | 1012.3 hPa | - | - | - | - |
| 1777908810 | 26.67° C | 30% | 1012.4 hPa | - | - | - | - |
| 1777907910 | 26.67° C | 30% | 1012.5 hPa | - | - | - | - |
| 1777907010 | 27.22° C | 30% | 1012.5 hPa | - | - | - | - |
| 1777906110 | 27.78° C | 29% | 1012.4 hPa | - | - | - | - |
* Rain since midnight (hover to see other rain measurements)
** Current wind speed in m/s (hover to see current wind gust speed)